DECAYED

STARLINK-1053, 44758 (Decayed)

Orbit data source: Space-Track

STARLINK-1053, 44758 was a payload satellite owned by SpaceX/Seattle (US) in LEO that was launched on Mon, 11 Nov 2019 UTC via an FALCON 9 launch vehicle from the Air Force Eastern Test Range (AFETR). Payload-class satellites include a variety of spacecraft equipped with specific instruments for various scientific and technological missions. These include communications satellites like Starlink; space stations such as the ISS; scientific satellites like the Hubble; Earth observation satellites from companies like Planet Labs, Umbra, and HawkEye 360; GPS; miniature CubeSats for education and research; and military/defense satellites.

Not visible in the next 10 days
Identifier
44758, 2019-074AX
Orbit
Decayed
Country
Flag of USUS
Related business
Manufacturer
SpaceX/Seattle
Mission
Decayed Commercial Communications
Bus & Motor
STARLINK, Unknown motor
Mass
260 kg wet, ~248 kg dry
Launch date (UTC)
2019-11-11 (7 years ago)
Launch vehicle
FALCON 9
Launch site
Air Force Eastern Test Range (AFETR)
Object type
Payload
Rocket body
Debris
Shape & HBR
Box + 1 Pan, 10.1 m
Radar Cross Section
13.562 m², Large (>1 m²)

Expand to show TLE details & history
Last TLE update: 3 months ago

TLE from 3 months ago
0 STARLINK-1053
1 44758U 19074AX  26091.07614443  .11374467  11995-4  25713-2 0  9998
2 44758  53.0163 327.3767 0008376 237.6802 122.3429 16.29294237353790
Epoch: 2026-04-01T01:49Z
TLE epoch observation values (Epoch: 2026-04-01T01:49:38.878Z)
Latitude
-0.00003°
Longitude
110.52051°
Altitude
198.307 km
Speed
7.787 km/s
True Right ascension
21h 49m 30s
True Declination
0° 00' 00"
Sunlit
Object was in daylight at epoch
Visualization orbit readout
Latitude
Unknown
Longitude
Unknown
Altitude
Unknown
Speed
Unknown
Apparent Right ascension
Unknown
Apparent Declination
Unknown
Sunlit
N/A
Visualization observer readout
Local Sidereal Time
20:16:58
Azimuth
Unknown
Elevation
Unknown
Doppler factor
Unknown
Orbital elements
Apogee altitude
200.234 km
Perigee altitude
189.223 km
Semi-major axis
6,572.865 km
Eccentricity
0.00084
Inclination
53.0163°
RAAN
327.3767°
Arg. of periapsis
237.6802°
True anomaly
122.42395°
Mean anomaly
122.3429°
Eccentric anomaly
122.38343°
Mean motion
4.07297 °/min
Orbital period
88.39 mins
BSTAR
0.0025713
Loading maneuver chart data...
Computing Atmospheric mass density...

Documentation

Showing up to 5 results
|